| time (UTC) | temp C | wind direction | speed KPH | gust KPH | rain 1hr cm | rain 24hr cm | rain mn cm | humidity % | barometer mb |
| 20260510120058 | 10 | 109 | 0.0 | 3.2 | 0.00 | 0.03 | 0.00 | 93 | 1011.0 |
| 20260510114620 | 10 | 109 | 0.0 | 4.8 | 0.00 | 0.03 | 0.00 | 93 | 1010.8 |
| 20260510113058 | 8 | 109 | 0.0 | 3.2 | 0.00 | 0.03 | 0.00 | 93 | 1010.6 |
| 20260510111552 | 7 | 202 | 0.0 | 0.0 | 0.00 | 0.03 | 0.00 | 92 | 1010.6 |
| 20260510110055 | 7 | 202 | 0.0 | 0.0 | 0.00 | 0.03 | 0.00 | 91 | 1010.2 |
| 20260510104550 | 7 | 202 | 0.0 | 0.0 | 0.00 | 0.03 | 0.00 | 91 | 1010.2 |
| 20260510103052 | 7 | 202 | 0.0 | 3.2 | 0.00 | 0.03 | 0.00 | 91 | 1010.0 |
| 20260510101557 | 7 | 202 | 0.0 | 0.0 | 0.00 | 0.03 | 0.00 | 90 | 1010.0 |
| 20260510100050 | 7 | 202 | 0.0 | 1.6 | 0.00 | 0.03 | 0.00 | 90 | 1009.7 |
| 20260510094548 | 8 | 202 | 0.0 | 0.0 | 0.00 | 0.03 | 0.00 | 89 | 1009.5 |
| 20260510093040 | 8 | 202 | 0.0 | 0.0 | 0.00 | 0.03 | 0.00 | 90 | 1009.3 |
| 20260510091537 | 9 | 202 | 0.0 | 1.6 | 0.00 | 0.03 | 0.00 | 90 | 1009.0 |
| 20260510090036 | 9 | 202 | 0.0 | 0.0 | 0.00 | 0.03 | 0.00 | 90 | 1008.7 |
| 20260510084537 | 9 | 202 | 0.0 | 0.0 | 0.00 | 0.03 | 0.00 | 90 | 1009.1 |
| 20260510083036 | 9 | 90 | 0.0 | 0.0 | 0.00 | 0.03 | 0.00 | 90 | 1008.8 |
| 20260510081541 | 9 | 90 | 1.6 | 3.2 | 0.00 | 0.03 | 0.00 | 90 | 1008.5 |
| 20260510080050 | 10 | 115 | 0.0 | 3.2 | 0.00 | 0.03 | 0.00 | 90 | 1009.1 |
| 20260510074532 | 9 | 115 | 1.6 | 3.2 | 0.00 | 0.03 | 0.00 | 90 | 1009.7 |
| 20260510073040 | 9 | 115 | 0.0 | 1.6 | 0.00 | 0.03 | 0.00 | 90 | 1009.9 |
| 20260510071530 | 9 | 115 | 0.0 | 3.2 | 0.00 | 0.03 | 0.00 | 90 | 1009.7 |
| 20260510070042 | 9 | 113 | 0.0 | 1.6 | 0.00 | 0.03 | 0.00 | 90 | 1009.5 |
| 20260510064529 | 9 | 113 | 0.0 | 0.0 | 0.00 | 0.03 | 0.00 | 90 | 1009.3 |
| 20260510063035 | 9 | 113 | 0.0 | 3.2 | 0.00 | 0.03 | 0.00 | 89 | 1009.7 |
| 20260510061528 | 9 | 113 | 0.0 | 3.2 | 0.00 | 0.03 | 0.00 | 89 | 1009.4 |
| 20260510060036 | 9 | 113 | 0.0 | 1.6 | 0.00 | 0.03 | 0.00 | 89 | 1009.2 |
| 20260510054525 | 9 | 113 | 0.0 | 0.0 | 0.00 | 0.03 | 0.00 | 88 | 1009.3 |
| 20260510053024 | 9 | 113 | 0.0 | 1.6 | 0.00 | 0.03 | 0.00 | 88 | 1009.5 |
| 20260510051523 | 9 | 113 | 0.0 | 3.2 | 0.00 | 0.03 | 0.00 | 88 | 1009.6 |
| 20260510050021 | 10 | 113 | 0.0 | 3.2 | 0.00 | 0.03 | 0.00 | 88 | 1009.6 |
| 20260510044524 | 10 | 98 | 0.0 | 4.8 | 0.00 | 0.03 | 0.00 | 88 | 1009.4 |
| 20260510043019 | 10 | 87 | 1.6 | 8.0 | 0.00 | 0.03 | 0.00 | 88 | 1009.7 |
| 20260510041522 | 10 | 107 | 1.6 | 3.2 | 0.00 | 0.03 | 0.00 | 87 | 1009.7 |
| 20260510040015 | 10 | 111 | 1.6 | 4.8 | 0.00 | 0.03 | 0.03 | 87 | 1009.4 |
| 20260510034514 | 10 | 105 | 0.0 | 4.8 | 0.00 | 0.03 | 0.03 | 87 | 1009.5 |
| 20260510033013 | 10 | 165 | 1.6 | 4.8 | 0.00 | 0.03 | 0.03 | 87 | 1009.8 |
| 20260510031522 | 10 | 118 | 1.6 | 12.9 | 0.00 | 0.03 | 0.03 | 87 | 1009.7 |
| 20260510030013 | 10 | 111 | 0.0 | 4.8 | 0.00 | 0.03 | 0.03 | 88 | 1009.7 |
| 20260510024515 | 10 | 114 | 3.2 | 11.3 | 0.00 | 0.03 | 0.03 | 88 | 1009.8 |
| 20260510023014 | 9 | 145 | 0.0 | 6.4 | 0.00 | 0.03 | 0.03 | 88 | 1009.9 |
| 20260510021527 | 9 | 121 | 1.6 | 8.0 | 0.00 | 0.03 | 0.03 | 88 | 1009.8 |
| 20260510020011 | 9 | 119 | 0.0 | 4.8 | 0.00 | 0.03 | 0.03 | 88 | 1009.8 |
| 20260510014524 | 9 | 164 | 0.0 | 0.0 | 0.00 | 0.03 | 0.03 | 87 | 1009.9 |
| 20260510013011 | 9 | 164 | 0.0 | 0.0 | 0.00 | 0.03 | 0.03 | 87 | 1010.2 |
| 20260510011515 | 9 | 164 | 0.0 | 4.8 | 0.00 | 0.03 | 0.03 | 87 | 1010.4 |
| 20260510010020 | 9 | 131 | 0.0 | 6.4 | 0.00 | 0.03 | 0.03 | 87 | 1010.3 |
| 20260510004509 | 9 | 114 | 0.0 | 3.2 | 0.00 | 0.03 | 0.03 | 87 | 1010.1 |
| 20260510003009 | 9 | 113 | 0.0 | 4.8 | 0.00 | 0.03 | 0.03 | 87 | 1009.8 |
| 20260510001510 | 9 | 110 | 0.0 | 3.2 | 0.00 | 0.03 | 0.03 | 87 | 1009.8 |
| 20260510000007 | 10 | 157 | 0.0 | 4.8 | 0.00 | 0.03 | 0.03 | 87 | 1009.6 |
| 20260509234509 | 10 | 116 | 0.0 | 4.8 | 0.00 | 0.03 | 0.03 | 87 | 1009.4 |
| 20260509233006 | 9 | 99 | 0.0 | 1.6 | 0.00 | 0.03 | 0.03 | 87 | 1009.4 |
| 20260509231506 | 9 | 99 | 0.0 | 3.2 | 0.00 | 0.03 | 0.03 | 87 | 1009.4 |
| 20260509230018 | 9 | 88 | 3.2 | 6.4 | 0.00 | 0.03 | 0.03 | 88 | 1009.3 |
| 20260509224504 | 9 | 103 | 0.0 | 8.0 | 0.00 | 0.03 | 0.03 | 89 | 1009.4 |
| 20260509223005 | 9 | 101 | 0.0 | 8.0 | 0.00 | 0.03 | 0.03 | 89 | 1009.4 |
| 20260509221503 | 9 | 109 | 0.0 | 4.8 | 0.00 | 0.03 | 0.03 | 90 | 1009.6 |
| 20260509220002 | 9 | 103 | 0.0 | 3.2 | 0.00 | 0.03 | 0.03 | 89 | 1009.7 |
| 20260509214559 | 9 | 102 | 0.0 | 3.2 | 0.00 | 0.03 | 0.03 | 90 | 1009.8 |
| 20260509213114 | 9 | 126 | 0.0 | 3.2 | 0.00 | 0.03 | 0.03 | 90 | 1009.9 |
| 20260509211604 | 8 | 126 | 0.0 | 4.8 | 0.00 | 0.03 | 0.03 | 90 | 1010.1 |
| 20260509210056 | 9 | 103 | 0.0 | 3.2 | 0.00 | 0.03 | 0.03 | 89 | 1010.2 |
| 20260509204555 | 8 | 103 | 0.0 | 1.6 | 0.03 | 0.03 | 0.03 | 89 | 1010.2 |
| 20260509203053 | 8 | 103 | 0.0 | 1.6 | 0.03 | 0.03 | 0.03 | 89 | 1010.4 |
| 20260509201601 | 8 | 103 | 0.0 | 6.4 | 0.03 | 0.03 | 0.03 | 88 | 1010.4 |
| 20260509200054 | 8 | 171 | 0.0 | 3.2 | 0.03 | 0.03 | 0.03 | 87 | 1010.5 |
| 20260509194557 | 9 | 171 | 0.0 | 4.8 | 0.00 | 0.00 | 0.00 | 86 | 1010.5 |
| 20260509193050 | 9 | 110 | 0.0 | 3.2 | 0.00 | 0.00 | 0.00 | 85 | 1010.7 |
| 20260509191604 | 9 | 120 | 0.0 | 9.7 | 0.00 | 0.00 | 0.00 | 84 | 1010.7 |
| 20260509190049 | 9 | 112 | 1.6 | 9.7 | 0.00 | 0.00 | 0.00 | 83 | 1010.8 |
| 20260509184552 | 10 | 93 | 1.6 | 12.9 | 0.00 | 0.00 | 0.00 | 82 | 1010.8 |
| 20260509183053 | 10 | 80 | 4.8 | 11.3 | 0.00 | 0.00 | 0.00 | 83 | 1010.9 |
| 20260509181551 | 10 | 109 | 0.0 | 12.9 | 0.00 | 0.00 | 0.00 | 83 | 1010.9 |
| 20260509180053 | 10 | 86 | 1.6 | 8.0 | 0.00 | 0.00 | 0.00 | 84 | 1011.0 |
| 20260509174546 | 10 | 103 | 1.6 | 11.3 | 0.00 | 0.00 | 0.00 | 86 | 1011.1 |
| 20260509173054 | 10 | 119 | 1.6 | 4.8 | 0.00 | 0.00 | 0.00 | 86 | 1011.3 |
| 20260509171542 | 9 | 102 | 0.0 | 4.8 | 0.00 | 0.00 | 0.00 | 86 | 1011.4 |
| 20260509170037 | 9 | 130 | 0.0 | 6.4 | 0.00 | 0.00 | 0.00 | 85 | 1011.8 |
| 20260509164535 | 9 | 88 | 1.6 | 6.4 | 0.00 | 0.00 | 0.00 | 84 | 1012.0 |
| 20260509163136 | 10 | 78 | 3.2 | 4.8 | 0.00 | 0.00 | 0.00 | 83 | 1012.0 |
| 20260509161539 | 10 | 115 | 1.6 | 6.4 | 0.00 | 0.00 | 0.00 | 79 | 1012.3 |
| 20260509160035 | 10 | 113 | 1.6 | 12.9 | 0.00 | 0.00 | 0.00 | 78 | 1012.3 |
| 20260509154531 | 10 | 105 | 4.8 | 11.3 | 0.00 | 0.00 | 0.00 | 77 | 1012.5 |
| 20260509153048 | 10 | 92 | 1.6 | 9.7 | 0.00 | 0.00 | 0.00 | 77 | 1012.7 |
| 20260509151529 | 10 | 105 | 3.2 | 11.3 | 0.00 | 0.00 | 0.00 | 74 | 1012.8 |
| 20260509150030 | 10 | 65 | 4.8 | 12.9 | 0.00 | 0.00 | 0.00 | 72 | 1012.9 |
| 20260509144527 | 10 | 105 | 6.4 | 12.9 | 0.00 | 0.00 | 0.00 | 68 | 1012.7 |
| 20260509143027 | 10 | 101 | 1.6 | 11.3 | 0.00 | 0.00 | 0.00 | 69 | 1012.7 |
| 20260509141533 | 9 | 109 | 0.0 | 6.4 | 0.00 | 0.00 | 0.00 | 68 | 1012.5 |
| 20260509140019 | 8 | 190 | 0.0 | 1.6 | 0.00 | 0.00 | 0.00 | 67 | 1012.4 |
| 20260509134517 | 8 | 190 | 0.0 | 3.2 | 0.00 | 0.00 | 0.00 | 68 | 1012.5 |
| 20260509133014 | 7 | 157 | 0.0 | 3.2 | 0.00 | 0.00 | 0.00 | 70 | 1012.4 |
| 20260509131510 | 7 | 178 | 0.0 | 3.2 | 0.00 | 0.00 | 0.00 | 72 | 1012.5 |
| 20260509130005 | 6 | 205 | 0.0 | 3.2 | 0.00 | 0.00 | 0.00 | 79 | 1012.6 |
| 20260509124501 | 5 | 326 | 0.0 | 0.0 | 0.00 | 0.00 | 0.00 | 85 | 1012.9 |
| 20260509123057 | 3 | 321 | 0.0 | 1.6 | 0.00 | 0.00 | 0.00 | 89 | 1013.1 |
| 20260509121553 | 2 | 313 | 0.0 | 1.6 | 0.00 | 0.00 | 0.00 | 92 | 1013.3 |